Regional Weather Roundup
Issued by NWS Columbia, SC

Home | Current Version | Previous Version | Text Only | Print | Product List | Glossary On
Versions: 1 2 3 4 5 6 7 8 9 10 11 12 13 14 15 16 17 18 19 20 21 22 23 24 25 26 27 28 29 30 31 32 33 34 35 36 37 38 39 40 41 42 43 44 45 46 47 48 49 50
000
ASUS42 KCAE 030110
RWRCAE
REGIONAL WEATHER ROUNDUP
NATIONAL WEATHER SERVICE COLUMBIA SC
900 PM EDT SUN AUG 02 2015

NOTE: "FAIR" INDICATES FEW OR NO CLOUDS BELOW 12,000 FEET WITH NO
SIGNIFICANT WEATHER AND/OR OBSTRUCTIONS TO VISIBILITY.

NOT ALL STATIONS ARE QUALITY CONTROLLED BY THE NATIONAL
WEATHER SERVICE. USE DATA WITH CAUTION...ESPECIALLY
DEWPOINT OBSERVATIONS.

SCZ001>056-GAZ040-063>065-077-030200-
...UPSTATE SOUTH CAROLINA...

CITY           SKY/WX    TMP DP  RH WIND       PRES   REMARKS
ANDERSON       CLOUDY    84  60  44 CALM      29.90S
SPARTANBURG      N/A     82  63  51 CALM      29.90F
CLEMSON        PTCLDY    86  60  41 N3        29.92S
GREENVILLE     PTCLDY    86  56  35 E5        29.93S
GREENWOOD      MOCLDY    79  70  74 S5        29.92F
GREER          MOCLDY    82  59  45 E3        29.91S
ROCK HILL      MOCLDY    79  61  53 CALM      29.91F
LAURENS        MOCLDY    82  73  74 S5        29.91R


...CENTRAL SOUTH CAROLINA...

CITY           SKY/WX    TMP DP  RH WIND       PRES   REMARKS
COLUMBIA APT   PTCLDY    82  69  64 E6        29.88F
COLUMBIA OWENS PTCLDY    81  70  69 VRB3      29.90F
DARLINGTON     PTCLDY    81  66  61 SE5       29.93S
FLORENCE       PTCLDY    79  72  79 S6        29.91F
MCENTIRE ANGB  PTCLDY    77  70  79 SE5       29.90F
ORANGEBURG     MOCLDY    80  68  66 SE7       29.90F
SUMTER SHAW    CLOUDY    78  68  69 SE3       29.89S
NEWBERRY       MOCLDY    81  68  65 SW7       29.93S
BARNWELL       MOCLDY    82  73  74 SE9       29.91R
MANNING        RAIN      77  68  73 SE3       29.91S
CAMDEN         FAIR      79  68  69 CALM      29.91F
LANCASTER      MOCLDY    81  68  65 S8        29.92S
WINNSBORO      MOCLDY    81  68  65 SE5       29.92S


...EASTERN AND COASTAL SOUTH CAROLINA...

CITY           SKY/WX    TMP DP  RH WIND       PRES   REMARKS
MYRTLE BEACH   PTCLDY    81  72  74 S9        29.94S
N MYRTLE BCH   PTCLDY    81  72  74 S10       29.93S
CONWAY         FAIR      77  73  88 CALM      29.93S
MARION         FAIR      79  72  78 CALM      29.92F
HARTSVILLE     FAIR      77  64  65 CALM      29.91F
FLORENCE       PTCLDY    79  72  79 S6        29.91F
DARLINGTON     PTCLDY    81  66  61 SE5       29.93S
CHARLESTON APT MOCLDY    79  73  82 SE3       29.91S
MOUNT PLEASANT FAIR      77  75  94 CALM      29.91F
WALTERBORO     MOCLDY    79  73  83 E3        29.92R
BEAUFORT       CLOUDY    78  74  87 S8        29.91R


...EASTERN GEORGIA...

CITY           SKY/WX    TMP DP  RH WIND       PRES   REMARKS
AUGUSTA BUSH F PTCLDY    77  70  79 CALM      29.88S
AUGUSTA DANIEL MOCLDY    80  69  69 SE3       29.90S
THOMSON        CLOUDY    78  75  93 CALM      29.93F
WASHINGTON     FAIR      81  77  89 S6        29.90S
SYLVANIA       PTCLDY    80  77  90 CALM      29.90R
STATESBORO     CLEAR     78  76  94 CALM      29.89R
SAVANNAH       MOCLDY    76  73  91 SE5       29.89S


...SOUTHERN NORTH CAROLINA...

CITY           SKY/WX    TMP DP  RH WIND       PRES   REMARKS
CHARLOTTE      MOCLDY    87  54  32 E6        29.92S
MONROE         PTCLDY    82  65  56 VRB3      29.92R
WADESBORO      CLEAR     84  65  53 S7        29.92R
ROCKINGHAM     PTCLDY    81  67  61 SW3       29.92S
RUTHERFORDTON  MOCLDY    82  58  44 SE5       29.94S
ASHEVILLE      MOCLDY    77  61  57 CALM      30.00S

$$


USA.gov is the U.S. government's official web portal to all federal, state and local government web resources and services.